Tracking 28126 objects as of 2-Oct-2023
HD Live streaming from Space Station
objects crossing your sky now

STARLINK-30129

Track STARLINK-30129 now!
10-day predictions
STARLINK-30129 is classified as:


NORAD ID: 56689
Int'l Code: 2023-067B
Perigee: 565.1 km
Apogee: 567.3 km
Inclination: 43.0 °
Period: 95.8 minutes
Semi major axis: 6937 km
RCS: Unknown
Launch date: May 19, 2023
Source: United States (US)
Launch site: AIR FORCE EASTERN TEST RANGE (AFETR)
Your satellite tracking list
Your tracking list is empty




NASA's NSSDC Master Catalog

Two Line Element Set (TLE):
1 56689U 23067B   23274.54146782  .00003426  00000-0  26849-3 0  9994
2 56689  43.0010  71.6774 0001582 276.5973  83.4689 15.02546137 21758
Source of the keplerian elements: AFSPC